Gilze-Rijen, Netherlands

12:48 PM CEST on August 30, 2016 (GMT +0200)
Gilze-Rijen Air Base

Weather History for EHGR - September, 2013

Change the Weather History Date:

Saturday, September 7, 2013

  Actual Average Record
Temperature  
Mean Temperature 62 °F -  
Max Temperature 68 °F 64 °F 78 °F (2004)
Min Temperature 57 °F 48 °F 41 °F (1996)
Degree Days  
Heating Degree Days 2    
Growing Degree Days 12 (Base 50)    
Moisture  
Dew Point 58 °F    
Average Humidity 87    
Maximum Humidity 100    
Minimum Humidity 56    
Precipitation  
Precipitation 0.00 in - - ()
Sea Level Pressure  
Sea Level Pressure 29.98 in    
Wind  
Wind Speed 3 mph ()    
Max Wind Speed 9 mph    
Max Gust Speed -    
Visibility 4.7 miles    
Events Rain    
Averages and records for this station are not official NWS values.
T = Trace of Precipitation, MM = Missing Value Source: Averaged Metar Reports

Daily Weather History Graph

Daily Weather History Graph

Search for Another Location

Airport or City:

Trip Planner

Search our weather history database for the weather conditions in past years. The results will help you decide how hot, cold, wet, or windy it might be!

Date:

Astronomy

Sep. 07, 2013 Rise Set
Actual Time 7:02 AM CEST 8:12 PM CEST
Civil Twilight 6:28 AM CEST 8:47 PM CEST
Nautical Twilight 5:46 AM CEST 9:28 PM CEST
Astronomical Twilight 5:01 AM CEST 10:13 PM CEST
Moon 9:20 AM CEST (9/7) 8:38 PM CEST (9/7)
Length of Visible Light 14h 19m
Length of Day
13h 10m
Waxing Crescent, 4% of the Moon is Illuminated
Sep 7
Waxing Crescent
Sep 12
First Quarter
Sep 19
Full
Sep 27
Last Quarter
Oct 5
New

Hourly Weather History & Observations

Time (CEST) Temp. Dew Point Humidity Pressure Visibility Wind Dir Wind Speed Gust Speed Precip Events Conditions
12:09 AM 62.6 °F 59.0 °F 88% 29.92 in 3.1 mi WSW 4.6 mph - N/A Rain Light Rain
12:25 AM 62.6 °F 59.0 °F 88% 29.92 in 3.7 mi West 4.6 mph - N/A Rain Light Rain
12:55 AM 62.6 °F 59.0 °F 88% 29.89 in 3.7 mi West 1.2 mph - N/A   Overcast
1:02 AM 62.6 °F 59.0 °F 88% 29.89 in - WSW 1.2 mph - N/A   Overcast
1:12 AM 62.6 °F 60.8 °F 94% 29.89 in 3.1 mi SW 1.2 mph - N/A   Overcast
1:16 AM 60.8 °F 59.0 °F 94% 29.89 in - SW 1.2 mph - N/A   Overcast
1:25 AM 60.8 °F 60.8 °F 100% 29.89 in - WSW 1.2 mph - N/A   Overcast
1:29 AM 60.8 °F 60.8 °F 100% 29.92 in 3.7 mi WSW 2.3 mph - N/A   Overcast
1:33 AM 60.8 °F 59.0 °F 94% 29.92 in - WSW 2.3 mph - N/A   Overcast
1:37 AM 60.8 °F 59.0 °F 94% 29.92 in 3.1 mi SW 3.5 mph - N/A   Overcast
1:41 AM 60.8 °F 60.8 °F 100% 29.92 in - SSW 3.5 mph - N/A   Overcast
1:46 AM 60.8 °F 60.8 °F 100% 29.92 in 3.1 mi SSW 3.5 mph - N/A   Overcast
1:48 AM 60.8 °F 60.8 °F 100% 29.92 in - SW 3.5 mph - N/A   Overcast
1:55 AM 60.8 °F 59.0 °F 94% 29.92 in - WSW 3.5 mph - N/A   Overcast
2:07 AM 60.8 °F 60.8 °F 100% 29.92 in 3.1 mi SW 3.5 mph - N/A   Overcast
2:11 AM 60.8 °F 60.8 °F 100% 29.92 in - SSW 3.5 mph - N/A   Overcast
2:13 AM 60.8 °F 59.0 °F 94% 29.92 in 3.1 mi SSW 3.5 mph - N/A   Overcast
2:19 AM 60.8 °F 59.0 °F 94% 29.92 in - SSW 3.5 mph - N/A   Overcast
2:25 AM 60.8 °F 60.8 °F 100% 29.92 in - SSW 3.5 mph - N/A   Overcast
2:27 AM 60.8 °F 59.0 °F 94% 29.92 in 3.1 mi SSW 2.3 mph - N/A   Overcast
2:33 AM 60.8 °F 59.0 °F 94% 29.92 in - SSW 3.5 mph - N/A   Overcast
2:55 AM 60.8 °F 60.8 °F 100% 29.92 in - SW 3.5 mph - N/A   Overcast
3:00 AM 60.8 °F 59.0 °F 94% 29.92 in 3.1 mi SW 3.5 mph - N/A   Overcast
3:04 AM 60.8 °F 59.0 °F 94% 29.92 in - SW 3.5 mph - N/A   Overcast
3:08 AM 60.8 °F 59.0 °F 94% 29.92 in 3.1 mi SW 2.3 mph - N/A   Overcast
3:16 AM 60.8 °F 59.0 °F 94% 29.92 in - South 2.3 mph - N/A   Overcast
3:25 AM 60.8 °F 60.8 °F 100% 29.92 in - South 2.3 mph - N/A   Overcast
3:31 AM 60.8 °F 60.8 °F 100% 29.92 in 3.1 mi SSW 3.5 mph - N/A   Overcast
3:35 AM 60.8 °F 59.0 °F 94% 29.92 in - SW 3.5 mph - N/A   Overcast
3:37 AM 60.8 °F 59.0 °F 94% 29.92 in 3.1 mi SSW 3.5 mph - N/A   Overcast
3:43 AM 60.8 °F 59.0 °F 94% 29.92 in - SSW 2.3 mph - N/A   Overcast
3:49 AM 60.8 °F 59.0 °F 94% 29.92 in - South 2.3 mph - N/A   Overcast
3:55 AM 60.8 °F 59.0 °F 94% 29.92 in - South 2.3 mph - N/A   Overcast
4:25 AM 60.8 °F 59.0 °F 94% 29.95 in - South 3.5 mph - N/A   Overcast
4:36 AM 60.8 °F 59.0 °F 94% 29.95 in - South 2.3 mph - N/A   Overcast
4:49 AM 60.8 °F 59.0 °F 94% 29.95 in - SW 2.3 mph - N/A   Overcast
4:55 AM 60.8 °F 59.0 °F 94% 29.95 in - SW 3.5 mph - N/A   Overcast
5:06 AM 60.8 °F 59.0 °F 94% 29.95 in - SSW 2.3 mph - N/A   Mostly Cloudy
5:25 AM 60.8 °F 59.0 °F 94% 29.95 in - WSW 2.3 mph - N/A   Mostly Cloudy
5:26 AM 60.8 °F 59.0 °F 94% 29.95 in 2.2 mi WSW 2.3 mph - N/A   Overcast
5:31 AM 60.8 °F 59.0 °F 94% 29.95 in - West 2.3 mph - N/A   Mostly Cloudy
5:40 AM 60.8 °F 59.0 °F 94% 29.95 in 2.2 mi WSW 2.3 mph - N/A   Mostly Cloudy
5:45 AM 60.8 °F 59.0 °F 94% 29.95 in - WSW 2.3 mph - N/A   Mostly Cloudy
5:55 AM 60.8 °F 59.0 °F 94% 29.95 in - SW 2.3 mph - N/A   Overcast
6:00 AM 60.8 °F 59.0 °F 94% 29.95 in - SSW 2.3 mph - N/A   Overcast
6:07 AM 60.8 °F 59.0 °F 94% 29.95 in - SW 2.3 mph - N/A   Overcast
6:20 AM 60.8 °F 59.0 °F 94% 29.95 in 2.5 mi West 2.3 mph - N/A   Overcast
6:25 AM 60.8 °F 59.0 °F 94% 29.95 in - West 2.3 mph - N/A   Overcast
6:31 AM 60.8 °F 59.0 °F 94% 29.95 in - West 2.3 mph - N/A   Mostly Cloudy
6:32 AM 60.8 °F 59.0 °F 94% 29.95 in - West 2.3 mph - N/A   Mostly Cloudy
6:48 AM 60.8 °F 59.0 °F 94% 29.95 in - West 2.3 mph - N/A   Mostly Cloudy
6:55 AM 59.0 °F 59.0 °F 100% 29.95 in - West 1.2 mph - N/A   Mostly Cloudy
7:00 AM 59.0 °F 59.0 °F 100% 29.95 in - ESE 1.2 mph - N/A   Overcast
7:25 AM 59.0 °F 59.0 °F 100% 29.98 in - SSE 2.3 mph - N/A   Overcast
7:48 AM 60.8 °F 59.0 °F 94% 29.98 in - SE 1.2 mph - N/A   Overcast
7:55 AM 60.8 °F 59.0 °F 94% 29.98 in - SSE 2.3 mph - N/A   Overcast
8:03 AM 60.8 °F 59.0 °F 94% 29.98 in - SSE 2.3 mph - N/A   Overcast
8:08 AM 60.8 °F 59.0 °F 94% 29.98 in - SSE 2.3 mph - N/A   Overcast
8:12 AM 60.8 °F 59.0 °F 94% 29.98 in 2.2 mi SSE 2.3 mph - N/A   Overcast
8:14 AM 60.8 °F 59.0 °F 94% 29.98 in - South 2.3 mph - N/A   Overcast
8:25 AM 60.8 °F 59.0 °F 94% 29.98 in - SSW 2.3 mph - N/A   Overcast
8:38 AM 60.8 °F 59.0 °F 94% 29.98 in 2.5 mi SSW 3.5 mph - N/A   Overcast
8:55 AM 62.6 °F 59.0 °F 88% 29.98 in - SSW 2.3 mph - N/A   Overcast
9:25 AM 62.6 °F 59.0 °F 88% 30.01 in - SSW 5.8 mph - N/A   Overcast
9:37 AM 62.6 °F 59.0 °F 88% 30.01 in 3.1 mi SW 3.5 mph - N/A   Overcast
9:43 AM 62.6 °F 59.0 °F 88% 30.01 in - SW 3.5 mph - N/A   Overcast
9:47 AM 62.6 °F 59.0 °F 88% 30.01 in 3.1 mi SSW 3.5 mph - N/A   Overcast
9:55 AM 62.6 °F 59.0 °F 88% 30.01 in 3.1 mi SSW 3.5 mph - N/A   Overcast
10:08 AM 62.6 °F 59.0 °F 88% 30.01 in 3.1 mi SSW 4.6 mph - N/A   Overcast
10:25 AM 62.6 °F 59.0 °F 88% 30.01 in 3.1 mi SSW 4.6 mph - N/A   Overcast
10:55 AM 62.6 °F 59.0 °F 88% 30.01 in 3.7 mi SW 3.5 mph - N/A   Overcast
11:18 AM 62.6 °F 59.0 °F 88% 30.04 in 5.0 mi WSW 3.5 mph - N/A   Overcast
11:25 AM 62.6 °F 59.0 °F 88% 30.04 in 5.0 mi WSW 3.5 mph - N/A   Overcast
11:37 AM 64.4 °F 57.2 °F 77% 30.04 in 6.2 mi WSW 3.5 mph - N/A   Overcast
11:55 AM 64.4 °F 57.2 °F 77% 30.04 in 6.2 mi WSW 4.6 mph - N/A   Mostly Cloudy
12:25 PM 66.2 °F 55.4 °F 68% 30.04 in 6.2 mi WSW 4.6 mph - N/A   Overcast
12:55 PM 68.0 °F 51.8 °F 56% 30.04 in 6.2 mi SSW 6.9 mph - N/A   Overcast
1:25 PM 68.0 °F 51.8 °F 56% 30.04 in 6.2 mi SW 4.6 mph - N/A   Overcast
1:55 PM 68.0 °F 51.8 °F 56% 30.04 in 6.2 mi SSW 6.9 mph - N/A   Overcast
2:25 PM 68.0 °F 51.8 °F 56% 30.06 in 6.2 mi SSW 9.2 mph - N/A   Mostly Cloudy
2:55 PM 68.0 °F 51.8 °F 56% 30.06 in 6.2 mi SSW 9.2 mph - N/A   Overcast
3:25 PM 66.2 °F 51.8 °F 60% 30.06 in 6.2 mi SSW 5.8 mph - N/A Rain Light Rain
3:55 PM 66.2 °F 51.8 °F 60% 30.06 in 6.2 mi SW 4.6 mph - N/A   Mostly Cloudy
4:25 PM 66.2 °F 51.8 °F 60% 30.06 in 6.2 mi SSW 4.6 mph - N/A   Scattered Clouds
4:55 PM 64.4 °F 55.4 °F 73% 30.06 in 6.2 mi SW 4.6 mph - N/A Rain Light Rain
5:25 PM 68.0 °F 51.8 °F 56% 30.06 in 6.2 mi SSW 4.6 mph - N/A   Overcast
5:55 PM 66.2 °F 51.8 °F 60% 30.06 in 6.2 mi South 6.9 mph - N/A   Mostly Cloudy
6:25 PM 66.2 °F 51.8 °F 60% 30.06 in 6.2 mi SSW 5.8 mph - N/A   Overcast
6:55 PM 66.2 °F 53.6 °F 64% 30.06 in 6.2 mi South 5.8 mph - N/A   Overcast
7:25 PM 64.4 °F 53.6 °F 68% 30.06 in 6.2 mi South 6.9 mph - N/A   Overcast
7:55 PM 64.4 °F 53.6 °F 68% 30.06 in 6.2 mi South 4.6 mph - N/A   Mostly Cloudy
8:20 PM 62.6 °F 53.6 °F 72% 30.06 in 3.1 mi SSE 4.6 mph - N/A   Haze
8:25 PM 62.6 °F 53.6 °F 72% 30.06 in 6.2 mi SSE 4.6 mph - N/A   Overcast
8:38 PM 62.6 °F 55.4 °F 77% 30.06 in 6.2 mi SE 4.6 mph - N/A   Overcast
8:55 PM 60.8 °F 55.4 °F 82% 30.06 in 6.2 mi SE 4.6 mph - N/A   Mostly Cloudy
9:25 PM 60.8 °F 55.4 °F 82% 30.06 in 6.2 mi SE 3.5 mph - N/A   Overcast
9:55 PM 60.8 °F 55.4 °F 82% 30.09 in 6.2 mi SSW 2.3 mph - N/A   Overcast
10:25 PM 59.0 °F 55.4 °F 88% 30.06 in 6.2 mi NW 1.2 mph - N/A   Overcast
10:55 PM 57.2 °F 55.4 °F 94% 30.06 in 6.2 mi East 2.3 mph - N/A   Overcast
11:25 PM 59.0 °F 55.4 °F 88% 30.09 in 6.2 mi SE 1.2 mph - N/A   Overcast
11:55 PM 57.2 °F 55.4 °F 94% 30.06 in 6.2 mi Calm Calm - N/A   Mostly Cloudy